GW4718 Weather Reports


time (UTC)temp
F
wind
direction
speed
knots
gust
knots
rain 1hr
in
rain 24hr
in
rain mn
in
humidity
%
barometer
mb
20260508033838 49 151 1.7 2.6 0.00 0.00 0.00 51 1016.2
20260508033336 49 122 1.7 6.1 0.00 0.00 0.00 50 1015.9
20260508032833 49 54 2.6 2.6 0.00 0.00 0.00 50 1016.0
20260508032331 50 254 1.7 3.5 0.00 0.00 0.00 48 1015.9
20260508031828 48 81 2.6 2.6 0.00 0.00 0.00 55 1015.9
20260508031324 48 338 1.7 2.6 0.00 0.00 0.00 52 1016.1
20260508030820 47 78 3.5 5.2 0.00 0.00 0.00 53 1015.8
20260508030318 46 153 0.0 0.0 0.00 0.00 0.00 67 1015.8
20260508025814 46 109 0.9 1.7 0.00 0.00 0.00 65 1015.8
20260508025312 48 50 1.7 1.7 0.00 0.00 0.00 64 1015.7
20260508024808 46 199 2.6 7.0 0.00 0.00 0.00 52 1015.5
20260508024304 47 103 0.0 1.7 0.00 0.00 0.00 59 1015.4
20260508023801 49 113 0.9 0.9 0.00 0.00 0.00 59 1015.6
20260508023258 51 252 0.0 0.9 0.00 0.00 0.00 54 1015.3
20260508022754 49 133 1.7 7.8 0.00 0.00 0.00 49 1015.4
20260508022251 49 83 1.7 2.6 0.00 0.00 0.00 55 1015.4
20260508021748 49 141 0.0 0.9 0.00 0.00 0.00 59 1015.3
20260508021243 50 174 2.6 5.2 0.00 0.00 0.00 55 1015.3
20260508020740 50 188 0.9 7.0 0.00 0.00 0.00 54 1015.1
20260508020238 51 119 0.0 0.9 0.00 0.00 0.00 52 1015.3
20260508015735 51 164 5.2 6.1 0.00 0.00 0.00 50 1015.0
20260508015232 52 232 0.9 1.7 0.00 0.00 0.00 52 1015.2
20260508014729 51 63 0.9 0.9 0.00 0.00 0.00 55 1015.1
20260508014226 51 166 1.7 2.6 0.00 0.00 0.00 52 1015.1
20260508013721 53 196 0.9 2.6 0.00 0.00 0.00 53 1014.8
20260508013218 50 86 10.4 12.2 0.00 0.00 0.00 51 1014.8
20260508012716 51 91 1.7 1.7 0.00 0.00 0.00 58 1014.7
20260508012212 53 267 1.7 3.5 0.00 0.00 0.00 49 1014.5
20260508011711 52 205 0.0 5.2 0.00 0.00 0.00 54 1014.5
20260508011208 52 249 0.0 2.6 0.00 0.00 0.00 54 1014.4
20260508010704 53 105 2.6 5.2 0.00 0.00 0.00 52 1014.3
20260508010202 53 166 1.7 2.6 0.00 0.00 0.00 52 1014.3
20260508005659 51 150 0.0 0.9 0.00 0.00 0.00 54 1014.3
20260508005156 51 95 0.9 1.7 0.00 0.00 0.00 53 1014.1
20260508004651 53 245 0.9 2.6 0.00 0.00 0.00 51 1014.1
20260508004148 53 263 3.5 6.1 0.00 0.00 0.00 47 1014.0
20260508003645 53 232 1.7 3.5 0.00 0.00 0.00 52 1014.0
20260508003137 53 183 3.5 7.0 0.00 0.00 0.00 50 1014.0
20260508002633 52 190 4.3 9.6 0.00 0.00 0.00 50 1013.8
20260508002131 54 54 0.0 0.9 0.00 0.00 0.00 53 1014.0
20260508001625 54 175 3.5 6.1 0.00 0.00 0.00 50 1013.9
20260508001122 53 237 3.5 6.1 0.00 0.00 0.00 48 1013.8
20260508000617 53 93 0.0 0.0 0.00 0.00 0.00 58 1014.0
20260508000115 55 38 0.0 1.7 0.00 0.00 0.00 47 1013.7
20260507235612 55 186 1.7 2.6 0.00 0.00 0.00 47 1013.6
20260507235109 55 183 2.6 5.2 0.00 0.00 0.00 50 1013.4
20260507234606 55 307 1.7 9.6 0.00 0.00 0.00 47 1013.4
20260507234102 55 207 1.7 2.6 0.00 0.00 0.00 48 1013.7
20260507233559 55 209 7.8 11.3 0.00 0.00 0.00 47 1013.0
20260507233058 55 169 2.6 2.6 0.00 0.00 0.00 47 1013.4
20260507232553 56 220 0.0 1.7 0.00 0.00 0.00 47 1013.0
20260507232051 56 63 1.7 2.6 0.00 0.00 0.00 46 1013.0
20260507231547 56 323 0.0 2.6 0.00 0.00 0.00 46 1013.2
20260507231045 56 114 2.6 3.5 0.00 0.00 0.00 46 1013.3
20260507230541 56 95 1.7 1.7 0.00 0.00 0.00 46 1013.0
20260507230038 56 211 0.0 0.9 0.00 0.00 0.00 48 1012.9
20260507225533 57 179 0.9 0.9 0.00 0.00 0.00 45 1012.9
20260507225029 57 331 1.7 1.7 0.00 0.00 0.00 44 1012.9
20260507224525 57 104 1.7 2.6 0.00 0.00 0.00 44 1012.9
20260507224022 57 257 1.7 2.6 0.00 0.00 0.00 43 1013.0
20260507223518 58 247 2.6 3.5 0.00 0.00 0.00 46 1012.9
20260507223016 59 191 0.9 1.7 0.00 0.00 0.00 46 1012.6
20260507222513 59 295 1.7 1.7 0.00 0.00 0.00 45 1012.8
20260507222008 61 220 2.6 3.5 0.00 0.00 0.00 43 1012.7
20260507221505 61 279 0.9 1.7 0.00 0.00 0.00 42 1012.5
20260507221002 60 46 1.7 7.8 0.00 0.00 0.00 43 1012.4
20260507220459 58 23 1.7 5.2 0.00 0.00 0.00 46 1012.5
20260507215956 60 203 3.5 5.2 0.00 0.00 0.00 43 1012.3
20260507215452 60 222 1.7 7.8 0.00 0.00 0.00 43 1012.5
20260507214950 63 250 2.6 2.6 0.00 0.00 0.00 43 1012.3
20260507214447 62 241 2.6 5.2 0.00 0.00 0.00 43 1011.9
20260507213943 62 178 5.2 11.3 0.00 0.00 0.00 40 1012.0
20260507213440 62 210 0.0 2.6 0.00 0.00 0.00 44 1011.9
20260507212938 61 133 4.3 7.8 0.00 0.00 0.00 40 1011.8
20260507212433 62 214 1.7 2.6 0.00 0.00 0.00 40 1012.0
20260507211930 62 340 2.6 6.1 0.00 0.00 0.00 40 1012.1
20260507211426 61 284 0.9 2.6 0.00 0.00 0.00 44 1011.9
20260507210923 61 279 2.6 5.2 0.00 0.00 0.00 45 1011.8
20260507210420 60 244 4.3 6.1 0.00 0.00 0.00 45 1011.8
20260507205917 61 286 1.7 3.5 0.00 0.00 0.00 47 1011.7
20260507205414 62 147 3.5 6.1 0.00 0.00 0.00 43 1011.5
20260507204910 62 194 6.1 8.7 0.00 0.00 0.00 45 1011.6
20260507204406 61 219 6.1 8.7 0.00 0.00 0.00 45 1012.0
20260507203904 62 273 4.3 7.8 0.00 0.00 0.00 48 1011.9
20260507203402 62 241 1.7 2.6 0.00 0.00 0.00 44 1012.0
20260507202858 62 292 2.6 6.1 0.00 0.00 0.00 41 1012.0
20260507202354 62 195 4.3 13.0 0.00 0.00 0.00 45 1011.9
20260507201850 63 335 1.7 9.6 0.00 0.00 0.00 45 1012.0
20260507201346 62 193 7.0 9.6 0.00 0.00 0.00 44 1012.1
20260507200842 60 212 4.3 9.6 0.00 0.00 0.00 49 1011.8
20260507200338 59 138 8.7 16.5 0.00 0.00 0.00 48 1011.9
20260507195835 61 316 3.5 5.2 0.00 0.00 0.00 46 1011.9
20260507195332 61 356 4.3 9.6 0.00 0.00 0.00 45 1012.0
20260507194829 62 217 0.9 3.5 0.00 0.00 0.00 49 1012.2
20260507194325 61 231 3.5 7.0 0.00 0.00 0.00 48 1012.3
20260507193822 62 229 5.2 7.8 0.00 0.00 0.00 48 1011.7
20260507193320 63 203 3.5 7.0 0.00 0.00 0.00 43 1012.0
20260507192814 62 175 3.5 5.2 0.00 0.00 0.00 46 1012.0
20260507192312 62 263 3.5 7.8 0.00 0.00 0.00 46 1012.0
20260507191808 62 169 4.3 7.8 0.00 0.00 0.00 48 1012.0
20260507191304 62 256 2.6 6.1 0.00 0.00 0.00 45 1012.1
20260507190802 62 333 1.7 1.7 0.00 0.00 0.00 46 1012.3
20260507190300 62 250 1.7 2.6 0.00 0.00 0.00 47 1012.5
20260507185758 61 276 2.6 3.5 0.00 0.00 0.00 48 1012.6
20260507185254 62 234 5.2 8.7 0.00 0.00 0.00 48 1012.3
20260507184752 63 212 5.2 7.0 0.00 0.00 0.00 47 1012.4
20260507184250 63 233 3.5 5.2 0.00 0.00 0.00 50 1012.2
20260507183747 62 213 4.3 7.0 0.00 0.00 0.00 52 1012.2
20260507183244 63 173 2.6 7.0 0.00 0.00 0.00 50 1012.2
20260507182742 62 129 3.5 8.7 0.00 0.00 0.00 45 1012.2
20260507182241 62 188 3.5 7.0 0.00 0.00 0.00 48 1012.1
20260507181739 61 302 2.6 3.5 0.00 0.00 0.00 52 1012.4
20260507181235 63 253 4.3 8.7 0.00 0.00 0.00 51 1012.2
20260507180732 62 260 0.0 6.1 0.00 0.00 0.00 48 1012.3
20260507180229 62 324 2.6 5.2 0.00 0.00 0.00 48 1012.1
20260507175724 61 310 2.6 5.2 0.00 0.00 0.00 53 1012.2
20260507175221 61 11 0.9 6.1 0.00 0.00 0.00 52 1012.5
20260507174719 61 206 2.6 8.7 0.00 0.00 0.00 51 1012.5
20260507174217 60 53 0.0 6.1 0.00 0.00 0.00 50 1012.7
20260507173715 60 69 4.3 6.1 0.00 0.00 0.00 52 1012.7
20260507173211 59 270 4.3 6.1 0.00 0.00 0.00 56 1012.8
20260507172708 59 156 1.7 9.6 0.00 0.00 0.00 55 1013.0
20260507172204 58 226 5.2 7.0 0.00 0.00 0.00 56 1013.0
20260507171704 57 259 6.1 7.8 0.00 0.00 0.00 60 1013.2
20260507171202 58 69 10.4 13.0 0.00 0.00 0.00 59 1013.0
20260507170659 58 270 3.5 3.5 0.00 0.00 0.00 61 1013.3
20260507170156 57 281 0.0 3.5 0.00 0.00 0.00 60 1013.3
20260507165651 57 46 2.6 6.1 0.00 0.00 0.00 63 1013.4
20260507165148 57 166 3.5 5.2 0.00 0.00 0.00 59 1013.3
20260507164644 57 52 3.5 7.8 0.00 0.00 0.00 60 1013.3
20260507164141 58 203 5.2 7.0 0.00 0.00 0.00 60 1013.6
20260507163638 56 264 1.7 7.8 0.00 0.00 0.00 59 1013.5
20260507163136 56 183 3.5 9.6 0.00 0.00 0.00 60 1013.8
20260507162632 57 105 7.0 7.8 0.00 0.00 0.00 61 1013.8
20260507162128 57 292 4.3 6.1 0.00 0.00 0.00 59 1013.7
20260507161624 57 261 1.7 2.6 0.00 0.00 0.00 65 1013.8
20260507161121 58 186 3.5 6.1 0.00 0.00 0.00 61 1013.9
20260507160618 58 287 0.9 5.2 0.00 0.00 0.00 57 1013.8
20260507160114 58 200 0.9 3.5 0.00 0.00 0.00 62 1014.0
20260507155609 58 163 2.6 2.6 0.00 0.00 0.00 63 1014.0
20260507155107 56 286 0.9 0.9 0.00 0.00 0.00 60 1014.1
20260507154603 57 193 2.6 7.8 0.00 0.00 0.00 64 1014.3
20260507154100 57 214 0.0 1.7 0.00 0.00 0.00 61 1014.1
20260507153557 58 246 2.6 7.0 0.00 0.00 0.00 63 1014.4
20260507153053 56 255 0.9 2.6 0.00 0.00 0.00 62 1014.4
20260507152550 56 312 3.5 3.5 0.00 0.00 0.00 62 1014.4
20260507152046 56 315 3.5 3.5 0.00 0.00 0.00 61 1014.3
20260507151542 56 284 3.5 3.5 0.00 0.00 0.00 63 1014.4
20260507151039 55 120 0.0 3.5 0.00 0.00 0.00 62 1014.4
20260507150536 54 7 0.9 1.7 0.00 0.00 0.00 63 1014.5
20260507150033 54 40 0.9 1.7 0.00 0.00 0.00 64 1014.6
20260507145528 55 22 0.9 2.6 0.00 0.00 0.00 61 1014.4
20260507145026 54 58 0.9 2.6 0.00 0.00 0.00 65 1014.7
20260507144522 55 32 0.0 2.6 0.00 0.00 0.00 64 1014.6
20260507144020 54 51 0.9 1.7 0.00 0.00 0.00 66 1014.6
20260507143517 54 54 1.7 2.6 0.00 0.00 0.00 63 1014.7
20260507143014 55 81 1.7 2.6 0.00 0.00 0.00 59 1015.0
20260507142509 54 246 0.9 2.6 0.00 0.00 0.00 63 1014.8
20260507142007 53 255 1.7 1.7 0.00 0.00 0.00 61 1015.0
20260507141502 52 131 0.9 1.7 0.00 0.00 0.00 67 1015.2
20260507140959 52 102 1.7 2.6 0.00 0.00 0.00 66 1015.4
20260507140456 52 87 0.0 0.9 0.00 0.00 0.00 65 1015.4
20260507135953 52 4 1.7 5.2 0.00 0.00 0.00 67 1015.2
20260507135450 52 323 0.9 3.5 0.00 0.00 0.00 66 1015.4
20260507134947 51 23 0.9 1.7 0.00 0.00 0.00 66 1015.4
20260507134443 51 34 0.9 1.7 0.00 0.00 0.00 66 1015.4
20260507133935 51 129 0.0 0.0 0.00 0.00 0.00 65 1015.5
20260507133431 51 135 0.0 0.0 0.00 0.00 0.00 66 1015.7
20260507132929 51 188 0.0 1.7 0.00 0.00 0.00 69 1015.8
20260507132424 50 233 1.7 2.6 0.00 0.00 0.00 66 1015.6
20260507131921 50 208 0.9 1.7 0.00 0.00 0.00 67 1015.8
20260507131418 50 95 0.9 2.6 0.00 0.00 0.00 65 1015.7
20260507130915 50 56 1.7 3.5 0.00 0.00 0.00 66 1015.7
20260507130412 50 307 0.0 0.0 0.00 0.00 0.00 68 1015.9
20260507125911 50 170 0.0 2.6 0.00 0.00 0.00 67 1015.8
20260507125409 49 71 9.6 11.3 0.00 0.00 0.00 67 1015.9
20260507124906 49 214 2.6 3.5 0.00 0.00 0.00 71 1015.9
20260507124401 50 184 1.7 2.6 0.00 0.00 0.00 74 1015.8
20260507123900 49 127 0.0 1.7 0.00 0.00 0.00 75 1015.7
20260507123357 49 241 0.9 2.6 0.00 0.00 0.00 77 1015.9
20260507122853 50 254 1.7 5.2 0.00 0.00 0.00 76 1015.8
20260507122349 50 82 0.0 1.7 0.00 0.00 0.00 77 1015.5
20260507121845 50 172 2.6 2.6 0.00 0.00 0.00 80 1016.0
20260507121340 50 279 2.6 2.6 0.00 0.00 0.00 79 1015.4
20260507120838 50 195 0.0 1.7 0.00 0.00 0.00 82 1015.7
20260507120334 50 308 1.7 3.5 0.00 0.00 0.00 80 1015.6
20260507115830 50 279 0.9 1.7 0.00 0.00 0.00 80 1015.6
20260507115326 50 231 1.7 2.6 0.00 0.00 0.00 81 1015.5
20260507114822 50 349 2.6 3.5 0.00 0.00 0.00 80 1015.3
20260507114319 50 171 0.9 2.6 0.00 0.00 0.00 80 1015.3
20260507113817 50 35 0.9 0.9 0.00 0.00 0.00 86 1015.2
20260507113313 50 325 0.0 0.0 0.00 0.00 0.00 87 1015.3
20260507112811 50 305 0.0 0.0 0.00 0.00 0.00 87 1015.0
20260507112308 50 249 0.0 0.0 0.00 0.00 0.00 86 1015.2
20260507111806 50 352 0.0 0.0 0.00 0.00 0.00 87 1014.8
20260507111302 50 42 0.0 1.7 0.00 0.00 0.00 86 1015.0
20260507110759 50 10 0.0 0.9 0.00 0.00 0.00 86 1014.8
20260507110255 50 340 0.9 1.7 0.00 0.00 0.00 87 1014.8
20260507105752 50 3 0.0 0.0 0.00 0.00 0.00 86 1014.7
20260507105248 50 0 0.9 0.9 0.00 0.00 0.00 85 1014.6
20260507104746 50 20 0.0 0.9 0.00 0.00 0.00 86 1014.6
20260507104242 50 11 0.9 0.9 0.00 0.00 0.00 85 1014.4
20260507103737 50 0 0.9 1.7 0.00 0.00 0.00 85 1014.6
20260507103234 50 5 0.0 0.9 0.00 0.00 0.00 85 1014.5
20260507102730 50 307 0.0 0.9 0.00 0.00 0.00 85 1014.5
20260507102227 50 342 0.0 0.0 0.00 0.00 0.00 85 1014.6
20260507101723 50 5 0.0 0.0 0.00 0.00 0.00 84 1014.6
20260507101218 50 1 0.0 0.0 0.00 0.00 0.00 85 1014.3
20260507100716 50 42 1.7 2.6 0.00 0.00 0.00 84 1014.5
20260507100214 50 19 0.0 0.9 0.00 0.00 0.00 83 1014.4
20260507095712 50 7 0.0 1.7 0.00 0.00 0.00 84 1014.3
20260507095208 50 20 0.0 0.0 0.00 0.00 0.00 86 1014.3
20260507094705 50 101 0.0 0.0 0.00 0.00 0.00 85 1014.3
20260507094202 50 105 0.0 0.0 0.00 0.00 0.00 87 1014.2
20260507093659 50 102 0.0 0.0 0.00 0.00 0.00 86 1014.2
20260507093158 51 102 0.0 0.0 0.00 0.00 0.00 86 1014.3
20260507092654 50 111 0.0 0.0 0.00 0.00 0.00 86 1014.4
20260507092151 51 91 0.0 0.9 0.00 0.00 0.00 86 1014.3
20260507091647 51 167 0.0 0.0 0.00 0.00 0.00 86 1014.1
20260507091144 51 212 0.0 0.0 0.00 0.00 0.00 85 1014.5
20260507090639 51 262 0.0 0.0 0.00 0.00 0.00 83 1014.1
20260507090137 51 252 0.0 1.7 0.00 0.00 0.00 82 1014.1
20260507085633 51 235 0.9 1.7 0.00 0.00 0.00 82 1014.3
20260507085130 51 236 0.9 2.6 0.00 0.00 0.00 83 1014.3
20260507084627 51 255 0.0 0.0 0.00 0.00 0.00 83 1014.2
20260507084124 51 235 2.6 3.5 0.00 0.00 0.00 83 1014.2
20260507083620 51 292 0.0 1.7 0.00 0.00 0.00 83 1014.0
20260507083117 51 189 0.0 0.0 0.00 0.00 0.00 86 1014.1
20260507082613 51 323 0.9 1.7 0.00 0.00 0.00 83 1014.2
20260507082110 51 197 0.0 1.7 0.00 0.00 0.00 85 1014.3
20260507081606 51 236 0.0 0.0 0.00 0.00 0.00 85 1014.2
20260507081103 51 285 0.0 0.0 0.00 0.00 0.00 85 1014.2
20260507080559 51 28 0.0 0.0 0.00 0.00 0.00 84 1014.3
20260507080056 51 29 0.0 0.0 0.00 0.00 0.00 83 1014.4
20260507075551 51 21 0.0 0.9 0.00 0.00 0.00 83 1014.3
20260507075047 51 40 0.9 0.9 0.00 0.00 0.00 84 1014.3
20260507074544 51 25 0.0 0.0 0.00 0.00 0.00 84 1014.4
20260507074043 51 41 0.0 0.9 0.00 0.00 0.00 84 1014.6
20260507073538 51 62 0.9 1.7 0.00 0.00 0.00 85 1014.6
20260507073035 51 316 0.0 1.7 0.00 0.00 0.00 83 1014.5
20260507072533 51 284 0.0 0.0 0.00 0.00 0.00 83 1014.2
20260507072030 51 44 0.0 0.0 0.00 0.00 0.00 83 1014.3
20260507071527 51 21 0.0 0.0 0.00 0.00 0.00 82 1014.3
20260507071024 52 12 0.0 0.0 0.00 0.00 0.00 82 1014.1
20260507070521 52 340 0.0 0.0 0.00 0.00 0.00 82 1014.1
20260507070018 52 305 0.9 2.6 0.00 0.00 0.00 81 1014.2
20260507065514 52 3 1.7 1.7 0.00 0.00 0.00 81 1014.2
20260507065011 52 17 0.0 1.7 0.00 0.00 0.00 81 1014.3
20260507064509 52 15 1.7 1.7 0.00 0.00 0.00 81 1014.3
20260507064007 52 25 0.9 1.7 0.00 0.00 0.00 81 1014.2
20260507063504 52 21 0.9 2.6 0.00 0.00 0.00 81 1014.3
20260507063001 52 32 0.9 2.6 0.00 0.00 0.00 81 1014.3
20260507062458 53 31 0.9 1.7 0.00 0.00 0.00 81 1014.1
20260507061955 53 109 0.0 1.7 0.00 0.00 0.00 81 1014.3
20260507061453 53 263 0.0 1.7 0.00 0.00 0.00 81 1014.3
20260507060951 53 185 1.7 2.6 0.00 0.00 0.00 81 1014.5
20260507060448 53 135 0.0 0.9 0.00 0.00 0.00 81 1014.4
20260507055944 54 167 0.9 2.6 0.00 0.00 0.00 81 1014.4
20260507055440 55 273 1.7 2.6 0.00 0.00 0.00 80 1014.5
20260507054937 55 228 1.7 3.5 0.00 0.00 0.00 81 1014.6
20260507054433 55 180 0.9 2.6 0.00 0.00 0.00 80 1014.3
20260507053930 55 173 1.7 2.6 0.00 0.00 0.00 80 1014.5
20260507053422 55 199 3.5 6.1 0.00 0.00 0.00 81 1014.2
20260507052921 55 182 0.9 5.2 0.00 0.00 0.00 81 1014.5
20260507052418 55 114 1.7 1.7 0.00 0.00 0.00 84 1014.4
20260507051915 55 43 0.9 1.7 0.00 0.00 0.00 84 1014.4
20260507051413 56 112 2.6 3.5 0.00 0.00 0.00 84 1014.2
20260507050909 55 124 0.0 0.0 0.00 0.00 0.00 85 1014.3
20260507050400 55 59 0.0 0.0 0.00 0.00 0.00 85 1014.2
20260507045857 56 157 0.0 0.0 0.00 0.00 0.00 85 1014.1
20260507045353 56 156 0.0 0.0 0.00 0.00 0.00 86 1014.1
20260507044851 56 165 0.0 0.0 0.00 0.00 0.00 84 1014.1
20260507044347 56 52 0.0 0.9 0.00 0.00 0.00 81 1014.1
20260507043843 56 188 0.9 1.7 0.00 0.00 0.00 81 1013.9
20260507043339 56 181 2.6 2.6 0.00 0.00 0.00 82 1014.0
20260507042830 56 78 1.7 1.7 0.00 0.00 0.00 84 1013.9
20260507042326 56 346 0.0 2.6 0.00 0.00 0.00 83 1014.0
20260507041823 56 248 1.7 3.5 0.00 0.00 0.00 82 1014.2
20260507041319 56 204 1.7 2.6 0.00 0.00 0.00 84 1014.2
20260507040817 56 97 0.9 0.9 0.00 0.00 0.00 88 1013.8
20260507040313 56 254 0.0 0.9 0.00 0.00 0.00 88 1013.7
20260507035809 56 86 0.0 0.9 0.00 0.00 0.00 87 1013.3
20260507035306 57 105 0.9 0.9 0.00 0.00 0.00 86 1012.9
20260507034803 57 130 0.0 0.0 0.00 0.00 0.00 85 1013.5
20260507034259 57 207 0.0 0.0 0.00 0.00 0.00 84 1013.7